Regional Weather Roundup
Issued by NWS Boston, MA

Home | Current Version | Previous Version | Text Only | Print | Product List | Glossary On
Versions: 1 2 3 4 5 6 7 8 9 10 11 12 13 14 15 16 17 18 19 20 21 22 23 24 25 26 27 28 29 30 31 32 33 34 35 36 37 38 39 40 41 42 43 44 45 46 47 48 49 50
478
ASUS41 KBOX 130310
RWRBOX

REGIONAL WEATHER ROUNDUP
NATIONAL WEATHER SERVICE TAUNTON MA
1000 PM EST FRI FEB 12 2016

NOTE:  "FAIR" INDICATES FEW OR NO CLOUDS BELOW 12,000 FEET WITH NO
SIGNIFICANT WEATHER AND/OR OBSTRUCTIONS TO VISIBILITY.  THE FOLLOWING
OBSERVATION LOCATIONS DO NOT REPORT PRESENT WEATHER...PROVINCETOWN...
SMITHFIELD...BLOCK ISLAND...KEENE...AND OXFORD.

MAZALL-130400-
EASTERN MASSACHUSETTS

CITY           SKY/WX    TMP DP  RH WIND       PRES   REMARKS
BOSTON         CLOUDY    22   6  50 SW9G18    29.94F WCI  12
BEVERLY        CLOUDY    21   3  45 SW3       29.93F
LAWRENCE       CLOUDY    20   3  48 S3        29.94F
BEDFORD        CLOUDY    20   2  45 SW5       29.92F WCI  13
BLUE HILL        N/A     17   8  67 W6        29.88F WCI   9
NORWOOD        CLOUDY    21   8  57 W5        29.93F WCI  15
MARSHFIELD     CLOUDY    23  12  63 CALM      29.96F
PLYMOUTH       CLOUDY    19  11  70 CALM      29.94F
TAUNTON        CLOUDY    21  11  65 CALM      29.93F
NEW BEDFORD    CLOUDY    22  11  62 W5        29.93F WCI  16
$$

MAZALL-130400-
CAPE COD AND THE ISLANDS

CITY           SKY/WX    TMP DP  RH WIND       PRES   REMARKS
FALMOUTH       CLOUDY    21  10  63 CALM      29.93F
HYANNIS        CLOUDY    23  13  65 NW3       29.92F
CHATHAM        FLURRIES  21  17  84 NW3       29.95F
PROVINCETOWN   CLOUDY    24  12  60 W10       29.95F WCI  14
NANTUCKET      LGT SNOW  25  18  74 NE3       29.94F
MARTHAS VNYRD  LGT SNOW  23  15  71 NW7       29.93F WCI  15
$$

MAZALL-130400-
CENTRAL AND WESTERN MASSACHUSETTS

CITY           SKY/WX    TMP DP  RH WIND       PRES   REMARKS
WORCESTER      CLOUDY    16   5  62 SW6       29.84F WCI   7
FITCHBURG      PTCLDY    19   2  47 S5        29.91F WCI  12
ORANGE         PTCLDY    14   2  58 SW5       29.88F WCI   6
SPRINGFIELD    PTCLDY    16   4  60 S2        29.90F
WESTFIELD      PTCLDY    15   3  59 CALM      29.91F
NORTH ADAMS    CLEAR     11   1  64 CALM      29.86F
PITTSFIELD     CLEAR     12   3  67 CALM      29.81F
$$

RIZALL-130400-
RHODE ISLAND

CITY           SKY/WX    TMP DP  RH WIND       PRES   REMARKS
PROVIDENCE     CLOUDY    21   8  57 W6        29.94F WCI  13
NEWPORT        CLOUDY    21  10  62 VRB3      29.93F
BLOCK ISLAND   CLOUDY    23  18  80 W8        29.91F WCI  14
SMITHFIELD     MOCLDY    19   7  58 W3        29.89F
WESTERLY       CLOUDY    22  10  60 CALM      29.94F
$$

CTZALL-130400-
CONNECTICUT

CITY           SKY/WX    TMP DP  RH WIND       PRES   REMARKS
BRADLEY INTL   MOCLDY    20   7  57 SW5       29.92F WCI  13
HARTFORD       PTCLDY    22   9  57 S5        29.94F WCI  16
BRIDGEPORT     CLOUDY    23  11  60 W5        29.94F WCI  17
DANBURY        CLOUDY    19   5  54 SW3       29.91F
GROTON         CLOUDY    22  14  71 NW6       29.94F WCI  14
NEW HAVEN      CLOUDY    22  12  65 NW9       29.94F WCI  12
CHESTER        LGT SNOW  21  18  86 CALM      29.92S
MERIDEN        PTCLDY    21  11  65 CALM      29.93F
WILLIMANTIC    CLOUDY    21  10  62 S5        29.93F WCI  15
OXFORD         MOCLDY    18   5  57 CALM      29.89F
$$

MEZ002-015-021-024-NHZ003-005-008-011-012-014-VTZ005-008-130400-
NORTHERN NEW ENGLAND

CITY           SKY/WX    TMP DP  RH WIND       PRES   REMARKS
PORTLAND ME    CLOUDY    19   2  47 SW3       29.93F
BANGOR ME      CLOUDY     3  -6  66 CALM      29.95F
CONCORD NH     PTCLDY    16   2  54 SE3       29.90F
MANCHESTER NH  CLOUDY    20   2  45 S6        29.89F WCI  12
NASHUA NH      CLOUDY    16   1  53 CALM      29.91F
PORTSMOUTH NH  CLOUDY    18   4  53 S2        29.92F
JAFFREY NH     PTCLDY     8   0  69 SW3       29.83F
KEENE NH       CLEAR     10   0  61 CALM      29.88F
BURLINGTON VT  CLOUDY    19   2  47 S13       29.80F WCI   6
MT. WASHINGTON NOT AVBL
$$

NYZ052-076-130400-
EASTERN NEW YORK

CITY           SKY/WX    TMP DP  RH WIND       PRES   REMARKS
ALBANY         MOCLDY    19   4  51 S5        29.89S WCI  12
NEW YORK CITY  CLOUDY    24   4  42 W13       29.96F WCI  12
$$

ANZALL-130400-
MARINE OBSERVATIONS

STATION/POSITION TIME  TEMP    WIND        PRES    VSBY  WAVE
                       AIR SEA DIR/SP/G                  HT/PER
                 (UTC) (F)     (DEG/KT/KT) (MB)    (MI)  (FT/S)
BOSTON BUOY      0250   24 40  260/ 12/ 16 1013.8F         1/12
BUZZARDS BAY     0300          310/ 10/ 12 1014.2F
NANTUCKET SOUND  0250   26 38  320/ 14/ 16 1013.7F         1/ 2
MASS BAY-STELLWA 0204   24 41  220/ 10/ 16   N/A    1 7/8  2/ 3
ISLE OF SHOALS   0300   23     240/ 14/ 16 1012.7F
S OF BLOCK IS    NOT AVBL
$$

......................KEY.........................
  SKY/WX - SKY CONDITION/PRESENT WEATHER
  TMP    - TEMPERATURE IN FAHRENHEIT
  DWPT   - DEWPOINT IN FAHRENHEIT
  RH     - RELATIVE HUMIDITY IN PERCENT
  WIND   - DIRECTION AND SPEED IN MPH
  PRES   - MEAN SEA LEVEL PRESSURE IN INCHES OF HG
  WCI    - WIND CHILL INDEX
  VSB    - VISIBILITY IN MILES
  HX     - HEAT INDEX
  TC     - TEMPERATURE IN CELSIUS
  VRB    - VARIABLE WIND DIRECTION
  N/A    - NOT AVAILABLE




USA.gov is the U.S. government's official web portal to all federal, state and local government web resources and services.